Regional Weather Roundup
Issued by NWS

Home | Current Version | Previous Version | Text Only | Print | Product List | Glossary On
Versions: 1 2 3 4 5 6 7 8 9 10 11 12 13 14 15 16 17 18 19 20 21 22 23 24 25 26 27 28 29 30 31 32 33 34 35 36 37 38 39 40 41 42 43 44 45 46 47 48 49 50
000
ASHW40 PHFO 230643
RWRHI

WEATHER ROUNDUP FOR HAWAII
NATIONAL WEATHER SERVICE HONOLULU HI
800 PM HST FRI MAY 22 2015

THIS IS AN AUTOMATED REPORT THAT HAS NOT BEEN QUALITY CONTROLLED.

NOTE..."FAIR" INDICATES FEW OR NO CLOUDS BELOW 12,000 FEET WITH NO
SIGNIFICANT WEATHER AND/OR OBSTRUCTIONS TO VISIBILITY.

* - THESE SITES REPORT LIMITED FIELDS

HIZ001>004-230700-
KAUAI-NIIHAU-

CITY           SKY/WX    TMP DP  RH WIND       PRES   REMARKS
LIHUE APT      CLOUDY    70  65  84 N10       30.03R
PORT ALLEN*    NOT AVBL
POIPU*           N/A     72 N/A N/A NE3         N/A
PRINCEVILLE*     N/A     68 N/A N/A MISG        N/A
KOKOLE POINT*  NOT AVBL
MOLOAA DAIRY*  NOT AVBL
WAIMEA HTS*      N/A     72  64  78 NW3         N/A
PUU OPAE*        N/A     64  59  82 N3          N/A
PUU LUA*       NOT AVBL
MAKAHA RIDGE*    N/A     64  63  94 NE6G12      N/A
$$

HIZ005>011-230700-
OAHU-

CITY           SKY/WX    TMP DP  RH WIND       PRES   REMARKS
HONOLULU       MOCLDY    74  68  81 N8        30.00R
KALAELOA       PTCLDY    73  65  75 N9        30.00R
KANEOHE MCB    CLOUDY    73  66  78 NE14      30.00R
WHEELER FIELD  CLOUDY    68  66  94 NW6       30.03R
BELLOWS*         N/A    N/A N/A N/A SW7         N/A
KAHUKU*          N/A    N/A N/A N/A N5G12       N/A
WHEELER*       NOT AVBL
WAIANAE HARBOR NOT AVBL
DILLINGHAM*      N/A     72  66  83 MISG        N/A
KAHUKU TRN*      N/A    N/A N/A N/A N6G16       N/A
KAWAILOA*        N/A     66  64  94 NE5G13      N/A
KII*             N/A     75  64  69 N15         N/A
MAKUA RANGE*     N/A     72  66  83 E9G18       N/A
OAHU FOREST NW   N/A    N/A N/A N/A CALM        N/A
SCHOFIELD BRK*   N/A     68  66  94 MISG        N/A
SCHOFIELD S*   NOT AVBL
WAIANAE VLY*     N/A     70  64  83 VRB10G17    N/A
KUAOKALA*        N/A     68  64  88 NE14G29     N/A
HONOULIUULI*   NOT AVBL
MOKUOLOE IS*     N/A    N/A N/A N/A MISG        N/A
PALEHUA*         N/A     63  59  88 NE7G17      N/A
WAIAWA PHB*    NOT AVBL
$$

HIZ012>013-230700-
MOLOKAI-

CITY           SKY/WX    TMP DP  RH WIND       PRES   REMARKS
MOLOKAI AIRPT  HVY RAIN  72  68  88 N5        30.03R
KALAUPAPA      NOT AVBL
MAKAPULAPAI*     N/A     75  66  73 NE12G17     N/A
MOLOKAI 1*       N/A    N/A N/A N/A NE2         N/A
PUU ALII*        N/A     58  58  99 CALM        N/A
$$

HIZ016-230700-
KAHOOLAWE-

CITY           SKY/WX    TMP DP  RH WIND       PRES   REMARKS
KAHOOLAWE*       N/A     68 N/A N/A NE9         N/A
HAKIOAWA*        N/A     70  64  82 MISG      30.44R
HONOKANAIA*      N/A     77  65  66 N7        30.01R
KANELOA*         N/A     73  64  73 N12G18    30.04R
KEALIALALO*      N/A     73  66  78 E7G15     30.01R
LUA MAKIKA*    NOT AVBL
$$

HIZ014>015-230700-
LANAI-

CITY           SKY/WX    TMP DP  RH WIND       PRES   REMARKS
LANAI CITY     FAIR      70  65  84 NE7       30.04R
LANAI 1*         N/A     70  66  88 E8          N/A
$$

HIZ017>028-230700-
MAUI-

CITY           SKY/WX    TMP DP  RH WIND       PRES   REMARKS
KAHULUI        PTCLDY    75  68  78 E5        30.00R
KAPALUA-W MAUI NOT AVBL
HANA AIRPORT   CLOUDY    73  64  73 W5        30.04R
HANA*            N/A     73 N/A N/A W3          N/A
HALEAKALA SUMM   N/A     43   7  22 W8          N/A
MAALAEA BAY*   NOT AVBL
HALEAKALA*     NOT AVBL
KAUPO GAP*       N/A     57  57 100 S2G8        N/A
KULA 1*          N/A     48  46  93 E2          N/A
$$

HIZ023>026-230700-
BIG ISLAND OF HAWAII COAST AND LOWER SLOPES-

CITY           SKY/WX    TMP DP  RH WIND       PRES   REMARKS
KAILUA KONA    MOCLDY    77  69  76 W5        29.99R
HILO           CLOUDY    76  67  73 N3        30.00R
HONOKAA*       NOT AVBL
KAWAIHAE MWT*    N/A     77 N/A N/A W5          N/A
KAWAIHAE*        N/A     77 N/A N/A W3          N/A
SOUTH POINT*     N/A     66 N/A N/A N6          N/A
UPOLU AIRPORT*   N/A    N/A N/A N/A SE7         N/A
KAMUELA*       CLOUDY    63  63 100 NE5       30.11S
HAKALAU*         N/A     52  52 100 N1          N/A
KALOKO-HONOKO*   N/A     77  68  73 W3        29.98R
PALI 2*          N/A    N/A N/A N/A NE8         N/A
KEALAKOMO*       N/A     72  61  68 CALM        N/A
KAUPULEHU*       N/A     72  64  78 N3          N/A
KAPAPALA*        N/A     66  64  94 NW3         N/A
LOWER KAHUKU*    N/A     61  61 100 CALM        N/A
PUHE CS*         N/A     77  68  73 W2          N/A
PUHO CS*         N/A     75  67  76 NE1         N/A
PTA KEAMUKU*     N/A     61  59  94 CALM        N/A
WAIKOLOA*        N/A     72  68  88 NW2         N/A
$$

HIZ027>028-230700-
BIG ISLAND OF HAWAII INTERIOR AND SUMMMITS-

CITY           SKY/WX    TMP DP  RH WIND       PRES   REMARKS
BRADSHAW FIELD PTCLDY    54  50  87 SW1       30.30R
MK VISITOR CEN NOT AVBL
MAUNA KEA*       N/A     36 -15  11 NW41        N/A  WCI  21
MAUNA LOA*       N/A    N/A N/A N/A MISG        N/A
MAUNA LOA 1*   NOT AVBL
PTA KIPUKA*      N/A     55  52  88 E1          N/A
PTA RANGE 17*    N/A     55  52  88 SW3         N/A
PTA WEST*        N/A     66  64  94 NW2         N/A
NENE CABIN*      N/A     52 N/A N/A E3          N/A
AHUMOA*          N/A     48  45  87 NE2         N/A
PTA PORTABLE*  NOT AVBL
PUU MALI*        N/A     52  48  87 W6G12       N/A
$$

HIC003-230700-
NORTHWEST ISLANDS-

CITY           SKY/WX    TMP DP  RH WIND       PRES   REMARKS
MIDWAY ISLAND  PTCLDY   N/A N/A N/A E14       30.23R
MIDWAY NOS*    NOT AVBL
FRENCH FRIGATE NOT AVBL
$$

PHZ110>124-180-230700-
BUOY REPORTS

STATION/POSITION TIME  TEMP    WIND        PRES    WAVE   SWELL
                       AIR SEA DIR/SP/G            HT/PER HT/DIR
                 (UTC) (F)     (DEG/KT/KT) (MB)    (FT/S) (FT/D)
BUOY 51001       NOT AVBL
BUOY 51101       0600   73 76   40/ 17/ 21 1017.5R   8/ 8   5/340
BUOY 51100       NOT AVBL
BUOY 51002       0600   78 80   50/  6/  8 1015.2R   4/15   5/180
BUOY 51003       0600   78 80   50/  8/ 10 1015.3R   4/12   5
BUOY 51004       0504   77 80   80/  4/  6 1015.5R   4/ 8   5/100
BARBERS PT BUOY  NOT AVBL
WAIMEA BAY BUOY  0600      78                N/A     4/ 9   2/290
KAILUA BAY BUOY  0600      78                N/A     4/12   2/120
LANAI BUOY       NOT AVBL
BARBERS PT 2     0600      78                N/A     3/13   2/190
PAUWELA MAUI     0600      78                N/A     3/ 8   2/350
HILO             0600      78                N/A     4/ 8
KANEOHE BAY BUOY 0600      77                N/A     4/ 4   2/350
HANALEI KAUAI    0600      78                N/A     7/ 9   2/320
KAHULUI HARBOR   0600   76 78   30/  5/  7 1015.6R
HONOLULU HARBOR  0600   74 79  360/  6/ 10 1015.9R
KILO NALU        NOT AVBL
HILO HARBOR      0600   75 77  270/  4/  4 1015.6R
MOKUOLOE         0600   71 78  300/  3/  5 1016.1S
NAWILIWILI       0600   71 79  320/  4/  7 1016.8R
WHOTS BUOY       NOT AVBL
BUOY 51028       NOT AVBL
$$

......................KEY........................................
  SKY/WX - SKY CONDITIONS/PRESENT WEATHER
  TMP    - TEMPERATURE IN FAHRENHEIT
  DWPT   - DEWPOINT IN FAHRENHEIT
  RH     - RELATIVE HUMIDITY IN PERCENT
  WIND   - DIRECTION AND SPEED /MPH FOR ISLANDS...KTS FOR BUOYS/
  PRES   - MEAN SEA LEVEL PRESSURE IN INCHES OF HG
  VSB    - VISIBILITY IN MILES
  HX     - HEAT INDEX
  WCI    - WIND CHILL INDEX
  VRB    - VARIABLE WIND DIRECTION
  N/A    - NOT AVAILABLE



USA.gov is the U.S. government's official web portal to all federal, state and local government web resources and services.